Year,Month,Day,Hour,Minute,Value (Times are PST for temperature in C)
2014,08,16,00,00,16.70
2014,08,16,00,01,16.70
2014,08,16,00,02,16.70
2014,08,16,00,03,16.70
2014,08,16,00,04,16.70
2014,08,16,00,05,16.70
2014,08,16,00,06,16.70
2014,08,16,00,07,16.70
2014,08,16,00,08,16.70
2014,08,16,00,09,16.70
2014,08,16,00,10,16.70
2014,08,16,00,11,16.70
2014,08,16,00,12,16.70
2014,08,16,00,13,16.70
2014,08,16,00,14,16.70
2014,08,16,00,15,16.80
2014,08,16,00,16,16.80
2014,08,16,00,17,16.80
2014,08,16,00,18,16.80
2014,08,16,00,19,16.80
2014,08,16,00,20,16.80
2014,08,16,00,21,16.80
2014,08,16,00,22,16.80
2014,08,16,00,23,16.80
2014,08,16,00,24,16.80
2014,08,16,00,25,16.70
2014,08,16,00,26,16.70
2014,08,16,00,27,16.70
2014,08,16,00,28,16.70
2014,08,16,00,29,16.70
2014,08,16,00,30,16.70
2014,08,16,00,31,16.70
2014,08,16,00,32,16.70
2014,08,16,00,33,16.70
2014,08,16,00,34,16.70
2014,08,16,00,35,16.70
2014,08,16,00,36,16.70
2014,08,16,00,37,16.70
2014,08,16,00,38,16.70
2014,08,16,00,39,16.70
2014,08,16,00,40,16.70
2014,08,16,00,41,16.70
2014,08,16,00,42,16.70
2014,08,16,00,43,16.70
2014,08,16,00,44,16.70
2014,08,16,00,45,16.70
2014,08,16,00,46,16.70
2014,08,16,00,47,16.70
2014,08,16,00,48,16.70
2014,08,16,00,49,16.60
2014,08,16,00,50,16.60
2014,08,16,00,51,16.60
2014,08,16,00,52,16.60
2014,08,16,00,53,16.60
2014,08,16,00,54,16.60
2014,08,16,00,55,16.60
2014,08,16,00,56,16.60
2014,08,16,00,57,16.60
2014,08,16,00,58,16.60
2014,08,16,00,59,16.60
2014,08,16,01,00,16.60
2014,08,16,01,01,16.60
2014,08,16,01,02,16.60
2014,08,16,01,03,16.60
2014,08,16,01,04,16.60
2014,08,16,01,05,16.60
2014,08,16,01,06,16.60
2014,08,16,01,07,16.60
2014,08,16,01,08,16.60
2014,08,16,01,09,16.60
2014,08,16,01,10,16.60
2014,08,16,01,11,16.60
2014,08,16,01,12,16.60
2014,08,16,01,13,16.60
2014,08,16,01,14,16.50
2014,08,16,01,15,16.50
2014,08,16,01,16,16.60
2014,08,16,01,17,16.50
2014,08,16,01,18,16.50
2014,08,16,01,19,16.50
2014,08,16,01,20,16.50
2014,08,16,01,21,16.50
2014,08,16,01,22,16.50
2014,08,16,01,23,16.50
2014,08,16,01,24,16.50
2014,08,16,01,25,16.50
2014,08,16,01,26,16.50
2014,08,16,01,27,16.50
2014,08,16,01,28,16.50
2014,08,16,01,29,16.50
2014,08,16,01,30,16.50
2014,08,16,01,31,16.50
2014,08,16,01,32,16.50
2014,08,16,01,33,16.50
2014,08,16,01,34,16.50
2014,08,16,01,35,16.50
2014,08,16,01,36,16.50
2014,08,16,01,37,16.50
2014,08,16,01,38,16.50
2014,08,16,01,39,16.50
2014,08,16,01,40,16.50
2014,08,16,01,41,16.50
2014,08,16,01,42,16.50
2014,08,16,01,43,16.50
2014,08,16,01,44,16.50
2014,08,16,01,45,16.50
2014,08,16,01,46,16.50
2014,08,16,01,47,16.50
2014,08,16,01,48,16.50
2014,08,16,01,49,16.50
2014,08,16,01,50,16.50
2014,08,16,01,51,16.50
2014,08,16,01,52,16.50
2014,08,16,01,53,16.50
2014,08,16,01,54,16.50
2014,08,16,01,55,16.50
2014,08,16,01,56,16.50
2014,08,16,01,57,16.50
2014,08,16,01,58,16.50
2014,08,16,01,59,16.50
2014,08,16,02,00,16.50
2014,08,16,02,01,16.50
2014,08,16,02,02,16.50
2014,08,16,02,03,16.50
2014,08,16,02,04,16.50
2014,08,16,02,05,16.50
2014,08,16,02,06,16.50
2014,08,16,02,07,16.50
2014,08,16,02,08,16.50
2014,08,16,02,09,16.50
2014,08,16,02,10,16.50
2014,08,16,02,11,16.50
2014,08,16,02,12,16.50
2014,08,16,02,13,16.50
2014,08,16,02,14,16.50
2014,08,16,02,15,16.50
2014,08,16,02,16,16.50
2014,08,16,02,17,16.50
2014,08,16,02,18,16.50
2014,08,16,02,19,16.50
2014,08,16,02,20,16.50
2014,08,16,02,21,16.50
2014,08,16,02,22,16.50
2014,08,16,02,23,16.40
2014,08,16,02,24,16.50
2014,08,16,02,25,16.50
2014,08,16,02,26,16.50
2014,08,16,02,27,16.50
2014,08,16,02,28,16.50
2014,08,16,02,29,16.50
2014,08,16,02,30,16.50
2014,08,16,02,31,16.50
2014,08,16,02,32,16.50
2014,08,16,02,33,16.50
2014,08,16,02,34,16.50
2014,08,16,02,35,16.50
2014,08,16,02,36,16.50
2014,08,16,02,37,16.50
2014,08,16,02,38,16.50
2014,08,16,02,39,16.50
2014,08,16,02,40,16.50
2014,08,16,02,41,16.50
2014,08,16,02,42,16.50
2014,08,16,02,43,16.50
2014,08,16,02,44,16.50
2014,08,16,02,45,16.50
2014,08,16,02,46,16.50
2014,08,16,02,47,16.50
2014,08,16,02,48,16.50
2014,08,16,02,49,16.50
2014,08,16,02,50,16.50
2014,08,16,02,51,16.40
2014,08,16,02,52,16.50
2014,08,16,02,53,16.50
2014,08,16,02,54,16.40
2014,08,16,02,55,16.40
2014,08,16,02,56,16.40
2014,08,16,02,57,16.40
2014,08,16,02,58,16.40
2014,08,16,02,59,16.40
2014,08,16,03,00,16.40
2014,08,16,03,01,16.40
2014,08,16,03,02,16.40
2014,08,16,03,03,16.40
2014,08,16,03,04,16.40
2014,08,16,03,05,16.40
2014,08,16,03,06,16.40
2014,08,16,03,07,16.40
2014,08,16,03,08,16.40
2014,08,16,03,09,16.40
2014,08,16,03,10,16.40
2014,08,16,03,11,16.40
2014,08,16,03,12,16.40
2014,08,16,03,13,16.40
2014,08,16,03,14,16.40
2014,08,16,03,15,16.40
2014,08,16,03,16,16.40
2014,08,16,03,17,16.40
2014,08,16,03,18,16.40
2014,08,16,03,19,16.40
2014,08,16,03,20,16.40
2014,08,16,03,21,16.40
2014,08,16,03,22,16.40
2014,08,16,03,23,16.40
2014,08,16,03,24,16.40
2014,08,16,03,25,16.40
2014,08,16,03,26,16.40
2014,08,16,03,27,16.40
2014,08,16,03,28,16.40
2014,08,16,03,29,16.40
2014,08,16,03,30,16.40
2014,08,16,03,31,16.40
2014,08,16,03,32,16.40
2014,08,16,03,33,16.40
2014,08,16,03,34,16.40
2014,08,16,03,35,16.40
2014,08,16,03,36,16.40
2014,08,16,03,37,16.40
2014,08,16,03,38,16.40
2014,08,16,03,39,16.40
2014,08,16,03,40,16.40
2014,08,16,03,41,16.40
2014,08,16,03,42,16.40
2014,08,16,03,43,16.40
2014,08,16,03,44,16.40
2014,08,16,03,45,16.40
2014,08,16,03,46,16.40
2014,08,16,03,47,16.40
2014,08,16,03,48,16.40
2014,08,16,03,49,16.40
2014,08,16,03,50,16.40
2014,08,16,03,51,16.40
2014,08,16,03,52,16.40
2014,08,16,03,53,16.40
2014,08,16,03,54,16.40
2014,08,16,03,55,16.40
2014,08,16,03,56,16.40
2014,08,16,03,57,16.40
2014,08,16,03,58,16.40
2014,08,16,03,59,16.40
2014,08,16,04,00,16.40
2014,08,16,04,01,16.40
2014,08,16,04,02,16.40
2014,08,16,04,03,16.40
2014,08,16,04,04,16.40
2014,08,16,04,05,16.40
2014,08,16,04,06,16.40
2014,08,16,04,07,16.40
2014,08,16,04,08,16.40
2014,08,16,04,09,16.40
2014,08,16,04,10,16.40
2014,08,16,04,11,16.40
2014,08,16,04,12,16.40
2014,08,16,04,13,16.40
2014,08,16,04,14,16.40
2014,08,16,04,15,16.40
2014,08,16,04,16,16.40
2014,08,16,04,17,16.40
2014,08,16,04,18,16.40
2014,08,16,04,19,16.40
2014,08,16,04,20,16.40
2014,08,16,04,21,16.40
2014,08,16,04,22,16.40
2014,08,16,04,23,16.40
2014,08,16,04,24,16.40
2014,08,16,04,25,16.40
2014,08,16,04,26,16.40
2014,08,16,04,27,16.40
2014,08,16,04,28,16.40
2014,08,16,04,29,16.40
2014,08,16,04,30,16.40
2014,08,16,04,31,16.40
2014,08,16,04,32,16.40
2014,08,16,04,33,16.40
2014,08,16,04,34,16.50
2014,08,16,04,35,16.50
2014,08,16,04,36,16.50
2014,08,16,04,37,16.50
2014,08,16,04,38,16.50
2014,08,16,04,39,16.50
2014,08,16,04,40,16.50
2014,08,16,04,41,16.50
2014,08,16,04,42,16.50
2014,08,16,04,43,16.50
2014,08,16,04,44,16.50
2014,08,16,04,45,16.50
2014,08,16,04,46,16.50
2014,08,16,04,47,16.50
2014,08,16,04,48,16.50
2014,08,16,04,49,16.50
2014,08,16,04,50,16.50
2014,08,16,04,51,16.50
2014,08,16,04,52,16.50
2014,08,16,04,53,16.50
2014,08,16,04,54,16.50
2014,08,16,04,55,16.50
2014,08,16,04,56,16.50
2014,08,16,04,57,16.50
2014,08,16,04,58,16.50
2014,08,16,04,59,16.50
2014,08,16,05,00,16.50
2014,08,16,05,01,16.50
2014,08,16,05,02,16.50
2014,08,16,05,03,16.60
2014,08,16,05,04,16.60
2014,08,16,05,05,16.60
2014,08,16,05,06,16.60
2014,08,16,05,07,16.50
2014,08,16,05,08,16.50
2014,08,16,05,09,16.50
2014,08,16,05,10,16.50
2014,08,16,05,11,16.50
2014,08,16,05,12,16.50
2014,08,16,05,13,16.50
2014,08,16,05,14,16.40
2014,08,16,05,15,16.40
2014,08,16,05,16,16.40
2014,08,16,05,17,16.40
2014,08,16,05,18,16.40
2014,08,16,05,19,16.40
2014,08,16,05,20,16.40
2014,08,16,05,21,16.40
2014,08,16,05,22,16.40
2014,08,16,05,23,16.40
2014,08,16,05,24,16.40
2014,08,16,05,25,16.40
2014,08,16,05,26,16.40
2014,08,16,05,27,16.40
2014,08,16,05,28,16.40
2014,08,16,05,29,16.40
2014,08,16,05,30,16.40
2014,08,16,05,31,16.40
2014,08,16,05,32,16.40
2014,08,16,05,33,16.40
2014,08,16,05,34,16.40
2014,08,16,05,35,16.40
2014,08,16,05,36,16.40
2014,08,16,05,37,16.40
2014,08,16,05,38,16.40
2014,08,16,05,39,16.40
2014,08,16,05,40,16.40
2014,08,16,05,41,16.40
2014,08,16,05,42,16.40
2014,08,16,05,43,16.40
2014,08,16,05,44,16.40
2014,08,16,05,45,16.40
2014,08,16,05,46,16.40
2014,08,16,05,47,16.40
2014,08,16,05,48,16.40
2014,08,16,05,49,16.40
2014,08,16,05,50,16.40
2014,08,16,05,51,16.40
2014,08,16,05,52,16.40
2014,08,16,05,53,16.40
2014,08,16,05,54,16.40
2014,08,16,05,55,16.40
2014,08,16,05,56,16.40
2014,08,16,05,57,16.40
2014,08,16,05,58,16.40
2014,08,16,05,59,16.40
2014,08,16,06,00,16.40
2014,08,16,06,01,16.40
2014,08,16,06,02,16.40
2014,08,16,06,03,16.40
2014,08,16,06,04,16.40
2014,08,16,06,05,16.40
2014,08,16,06,06,16.40
2014,08,16,06,07,16.40
2014,08,16,06,08,16.40
2014,08,16,06,09,16.40
2014,08,16,06,10,16.40
2014,08,16,06,11,16.40
2014,08,16,06,12,16.40
2014,08,16,06,13,16.40
2014,08,16,06,14,16.30
2014,08,16,06,15,16.30
2014,08,16,06,16,16.30
2014,08,16,06,17,16.30
2014,08,16,06,18,16.30
2014,08,16,06,19,16.30
2014,08,16,06,20,16.30
2014,08,16,06,21,16.30
2014,08,16,06,22,16.30
2014,08,16,06,23,16.30
2014,08,16,06,24,16.30
2014,08,16,06,25,16.30
2014,08,16,06,26,16.30
2014,08,16,06,27,16.30
2014,08,16,06,28,16.30
2014,08,16,06,29,16.30
2014,08,16,06,30,16.30
2014,08,16,06,31,16.30
2014,08,16,06,32,16.30
2014,08,16,06,33,16.30
2014,08,16,06,34,16.30
2014,08,16,06,35,16.30
2014,08,16,06,36,16.30
2014,08,16,06,37,16.30
2014,08,16,06,38,16.30
2014,08,16,06,39,16.30
2014,08,16,06,40,16.30
2014,08,16,06,41,16.30
2014,08,16,06,42,16.30
2014,08,16,06,43,16.30
2014,08,16,06,44,16.30
2014,08,16,06,45,16.30
2014,08,16,06,46,16.30
2014,08,16,06,47,16.30
2014,08,16,06,48,16.30
2014,08,16,06,49,16.30
2014,08,16,06,50,16.30
2014,08,16,06,51,16.30
2014,08,16,06,52,16.30
2014,08,16,06,53,16.30
2014,08,16,06,54,16.40
2014,08,16,06,55,16.30
2014,08,16,06,56,16.30
2014,08,16,06,57,16.30
2014,08,16,06,58,16.30
2014,08,16,06,59,16.30
2014,08,16,07,00,16.40
2014,08,16,07,01,16.40
2014,08,16,07,02,16.40
2014,08,16,07,03,16.40
2014,08,16,07,04,16.40
2014,08,16,07,05,16.40
2014,08,16,07,06,16.40
2014,08,16,07,07,16.40
2014,08,16,07,08,16.40
2014,08,16,07,09,16.40
2014,08,16,07,10,16.40
2014,08,16,07,11,16.40
2014,08,16,07,12,16.40
2014,08,16,07,13,16.40
2014,08,16,07,14,16.40
2014,08,16,07,15,16.40
2014,08,16,07,16,16.40
2014,08,16,07,17,16.40
2014,08,16,07,18,16.40
2014,08,16,07,19,16.40
2014,08,16,07,20,16.50
2014,08,16,07,21,16.50
2014,08,16,07,22,16.50
2014,08,16,07,23,16.50
2014,08,16,07,24,16.50
2014,08,16,07,25,16.50
2014,08,16,07,26,16.50
2014,08,16,07,27,16.50
2014,08,16,07,28,16.50
2014,08,16,07,29,16.50
2014,08,16,07,30,16.50
2014,08,16,07,31,16.50
2014,08,16,07,32,16.60
2014,08,16,07,33,16.60
2014,08,16,07,34,16.60
2014,08,16,07,35,16.60
2014,08,16,07,36,16.60
2014,08,16,07,37,16.60
2014,08,16,07,38,16.60
2014,08,16,07,39,16.60
2014,08,16,07,40,16.60
2014,08,16,07,41,16.60
2014,08,16,07,42,16.60
2014,08,16,07,43,16.60
2014,08,16,07,44,16.60
2014,08,16,07,45,16.60
2014,08,16,07,46,16.60
2014,08,16,07,47,16.60
2014,08,16,07,48,16.60
2014,08,16,07,49,16.60
2014,08,16,07,50,16.70
2014,08,16,07,51,16.70
2014,08,16,07,52,16.70
2014,08,16,07,53,16.70
2014,08,16,07,54,16.70
2014,08,16,07,55,16.70
2014,08,16,07,56,16.70
2014,08,16,07,57,16.70
2014,08,16,07,58,16.70
2014,08,16,07,59,16.70
2014,08,16,08,00,16.70
2014,08,16,08,01,16.70
2014,08,16,08,02,16.70
2014,08,16,08,03,16.70
2014,08,16,08,04,16.70
2014,08,16,08,05,16.80
2014,08,16,08,06,16.80
2014,08,16,08,07,16.80
2014,08,16,08,08,16.80
2014,08,16,08,09,16.80
2014,08,16,08,10,16.80
2014,08,16,08,11,16.80
2014,08,16,08,12,16.80
2014,08,16,08,13,16.80
2014,08,16,08,14,16.80
2014,08,16,08,15,16.80
2014,08,16,08,16,16.90
2014,08,16,08,17,16.90
2014,08,16,08,18,16.90
2014,08,16,08,19,16.90
2014,08,16,08,20,16.90
2014,08,16,08,21,16.90
2014,08,16,08,22,17.00
2014,08,16,08,23,17.00
2014,08,16,08,24,17.00
2014,08,16,08,25,17.10
2014,08,16,08,26,17.10
2014,08,16,08,27,17.10
2014,08,16,08,28,17.10
2014,08,16,08,29,17.10
2014,08,16,08,30,17.10
2014,08,16,08,31,17.10
2014,08,16,08,32,17.10
2014,08,16,08,33,17.20
2014,08,16,08,34,17.20
2014,08,16,08,35,17.20
2014,08,16,08,36,17.20
2014,08,16,08,37,17.20
2014,08,16,08,38,17.30
2014,08,16,08,39,17.30
2014,08,16,08,40,17.30
2014,08,16,08,41,17.40
2014,08,16,08,42,17.40
2014,08,16,08,43,17.40
2014,08,16,08,44,17.40
2014,08,16,08,45,17.40
2014,08,16,08,46,17.40
2014,08,16,08,47,17.40
2014,08,16,08,48,17.40
2014,08,16,08,49,17.50
2014,08,16,08,50,17.50
2014,08,16,08,51,17.50
2014,08,16,08,52,17.50
2014,08,16,08,53,17.50
2014,08,16,08,54,17.60
2014,08,16,08,55,17.60
2014,08,16,08,56,17.60
2014,08,16,08,57,17.60
2014,08,16,08,58,17.60
2014,08,16,08,59,17.60
2014,08,16,09,00,17.60
2014,08,16,09,01,17.70
2014,08,16,09,02,17.70
2014,08,16,09,03,17.70
2014,08,16,09,04,17.70
2014,08,16,09,05,17.70
2014,08,16,09,06,17.70
2014,08,16,09,07,17.70
2014,08,16,09,08,17.70
2014,08,16,09,09,17.80
2014,08,16,09,10,17.80
2014,08,16,09,11,17.80
2014,08,16,09,12,17.80
2014,08,16,09,13,17.80
2014,08,16,09,14,17.90
2014,08,16,09,15,17.90
2014,08,16,09,16,18.00
2014,08,16,09,17,18.00
2014,08,16,09,18,18.00
2014,08,16,09,19,18.00
2014,08,16,09,20,18.10
2014,08,16,09,21,18.10
2014,08,16,09,22,18.10
2014,08,16,09,23,18.10
2014,08,16,09,24,18.10
2014,08,16,09,25,18.20
2014,08,16,09,26,18.20
2014,08,16,09,27,18.20
2014,08,16,09,28,18.30
2014,08,16,09,29,18.30
2014,08,16,09,30,18.40
2014,08,16,09,31,18.40
2014,08,16,09,32,18.40
2014,08,16,09,33,18.40
2014,08,16,09,34,18.40
2014,08,16,09,35,18.40
2014,08,16,09,36,18.40
2014,08,16,09,37,18.50
2014,08,16,09,38,18.50
2014,08,16,09,39,18.50
2014,08,16,09,40,18.50
2014,08,16,09,41,18.50
2014,08,16,09,42,18.60
2014,08,16,09,43,18.60
2014,08,16,09,44,18.60
2014,08,16,09,45,18.60
2014,08,16,09,46,18.60
2014,08,16,09,47,18.70
2014,08,16,09,48,18.70
2014,08,16,09,49,18.70
2014,08,16,09,50,18.70
2014,08,16,09,51,18.70
2014,08,16,09,52,18.80
2014,08,16,09,53,18.80
2014,08,16,09,54,18.80
2014,08,16,09,55,18.90
2014,08,16,09,56,18.90
2014,08,16,09,57,18.90
2014,08,16,09,58,19.00
2014,08,16,09,59,19.00
2014,08,16,10,00,19.10
2014,08,16,10,01,19.10
2014,08,16,10,02,19.20
2014,08,16,10,03,19.30
2014,08,16,10,04,19.30
2014,08,16,10,05,19.30
2014,08,16,10,06,19.40
2014,08,16,10,07,19.50
2014,08,16,10,08,19.60
2014,08,16,10,09,19.60
2014,08,16,10,10,19.60
2014,08,16,10,11,19.60
2014,08,16,10,12,19.60
2014,08,16,10,13,19.70
2014,08,16,10,14,19.70
2014,08,16,10,15,19.80
2014,08,16,10,16,19.80
2014,08,16,10,17,19.80
2014,08,16,10,18,19.80
2014,08,16,10,19,19.80
2014,08,16,10,20,19.80
2014,08,16,10,21,19.70
2014,08,16,10,22,19.70
2014,08,16,10,23,19.60
2014,08,16,10,24,19.60
2014,08,16,10,25,19.60
2014,08,16,10,26,19.50
2014,08,16,10,27,19.50
2014,08,16,10,28,19.50
2014,08,16,10,29,19.60
2014,08,16,10,30,19.60
2014,08,16,10,31,19.70
2014,08,16,10,32,19.80
2014,08,16,10,33,19.80
2014,08,16,10,34,19.80
2014,08,16,10,35,19.90
2014,08,16,10,36,19.90
2014,08,16,10,37,19.90
2014,08,16,10,38,20.00
2014,08,16,10,39,20.10
2014,08,16,10,40,20.20
2014,08,16,10,41,20.30
2014,08,16,10,42,20.30
2014,08,16,10,43,20.40
2014,08,16,10,44,20.30
2014,08,16,10,45,20.30
2014,08,16,10,46,20.30
2014,08,16,10,47,20.40
2014,08,16,10,48,20.40
2014,08,16,10,49,20.40
2014,08,16,10,50,20.40
2014,08,16,10,51,20.40
2014,08,16,10,52,20.50
2014,08,16,10,53,20.50
2014,08,16,10,54,20.60
2014,08,16,10,55,20.70
2014,08,16,10,56,20.70
2014,08,16,10,57,20.80
2014,08,16,10,58,20.90
2014,08,16,10,59,21.00
2014,08,16,11,00,21.10
2014,08,16,11,01,21.10
2014,08,16,11,02,21.20
2014,08,16,11,03,21.20
2014,08,16,11,04,21.20
2014,08,16,11,05,21.20
2014,08,16,11,06,21.30
2014,08,16,11,07,21.30
2014,08,16,11,08,21.30
2014,08,16,11,09,21.20
2014,08,16,11,10,21.20
2014,08,16,11,11,21.20
2014,08,16,11,12,21.20
2014,08,16,11,13,21.20
2014,08,16,11,14,21.20
2014,08,16,11,15,21.30
2014,08,16,11,16,21.30
2014,08,16,11,17,21.30
2014,08,16,11,18,21.30
2014,08,16,11,19,21.30
2014,08,16,11,20,21.30
2014,08,16,11,21,21.40
2014,08,16,11,22,21.40
2014,08,16,11,23,21.40
2014,08,16,11,24,21.50
2014,08,16,11,25,21.60
2014,08,16,11,26,21.60
2014,08,16,11,27,21.60
2014,08,16,11,28,21.60
2014,08,16,11,29,21.60
2014,08,16,11,30,21.70
2014,08,16,11,31,21.70
2014,08,16,11,32,21.80
2014,08,16,11,33,21.80
2014,08,16,11,34,21.90
2014,08,16,11,35,21.90
2014,08,16,11,36,21.90
2014,08,16,11,37,21.90
2014,08,16,11,38,21.80
2014,08,16,11,39,21.90
2014,08,16,11,40,21.90
2014,08,16,11,41,21.90
2014,08,16,11,42,21.90
2014,08,16,11,43,21.90
2014,08,16,11,44,21.90
2014,08,16,11,45,21.90
2014,08,16,11,46,21.80
2014,08,16,11,47,21.80
2014,08,16,11,48,21.70
2014,08,16,11,49,21.70
2014,08,16,11,50,21.70
2014,08,16,11,51,21.70
2014,08,16,11,52,21.70
2014,08,16,11,53,21.70
2014,08,16,11,54,21.70
2014,08,16,11,55,21.70
2014,08,16,11,56,21.70
2014,08,16,11,57,21.70
2014,08,16,11,58,21.70
2014,08,16,11,59,21.70
2014,08,16,12,00,21.80
2014,08,16,12,01,21.80
2014,08,16,12,02,21.80
2014,08,16,12,03,21.80
2014,08,16,12,04,21.80
2014,08,16,12,05,21.80
2014,08,16,12,06,21.80
2014,08,16,12,07,21.80
2014,08,16,12,08,21.80
2014,08,16,12,09,21.80
2014,08,16,12,10,21.80
2014,08,16,12,11,21.80
2014,08,16,12,12,21.80
2014,08,16,12,13,21.80
2014,08,16,12,14,21.80
2014,08,16,12,15,21.80
2014,08,16,12,16,21.80
2014,08,16,12,17,21.80
2014,08,16,12,18,21.80
2014,08,16,12,19,21.90
2014,08,16,12,20,21.90
2014,08,16,12,21,22.00
2014,08,16,12,22,22.10
2014,08,16,12,23,22.10
2014,08,16,12,24,22.20
2014,08,16,12,25,22.20
2014,08,16,12,26,22.30
2014,08,16,12,27,22.30
2014,08,16,12,28,22.30
2014,08,16,12,29,22.30
2014,08,16,12,30,22.20
2014,08,16,12,31,22.20
2014,08,16,12,32,22.30
2014,08,16,12,33,22.30
2014,08,16,12,34,22.30
2014,08,16,12,35,22.30
2014,08,16,12,36,22.20
2014,08,16,12,37,22.20
2014,08,16,12,38,22.10
2014,08,16,12,39,22.10
2014,08,16,12,40,22.10
2014,08,16,12,41,22.10
2014,08,16,12,42,22.10
2014,08,16,12,43,22.10
2014,08,16,12,44,22.10
2014,08,16,12,45,22.10
2014,08,16,12,46,22.10
2014,08,16,12,47,22.10
2014,08,16,12,48,22.10
2014,08,16,12,49,22.20
2014,08,16,12,50,22.20
2014,08,16,12,51,22.20
2014,08,16,12,52,22.20
2014,08,16,12,53,22.20
2014,08,16,12,54,22.20
2014,08,16,12,55,22.20
2014,08,16,12,56,22.20
2014,08,16,12,57,22.20
2014,08,16,12,58,22.20
2014,08,16,12,59,22.30
2014,08,16,13,00,22.40
2014,08,16,13,01,22.40
2014,08,16,13,02,22.50
2014,08,16,13,03,22.50
2014,08,16,13,04,22.60
2014,08,16,13,05,22.70
2014,08,16,13,06,22.80
2014,08,16,13,07,22.90
2014,08,16,13,08,23.00
2014,08,16,13,09,23.10
2014,08,16,13,10,23.20
2014,08,16,13,11,23.30
2014,08,16,13,12,23.40
2014,08,16,13,13,23.50
2014,08,16,13,14,23.60
2014,08,16,13,15,23.60
2014,08,16,13,16,23.60
2014,08,16,13,17,23.60
2014,08,16,13,18,23.50
2014,08,16,13,19,23.50
2014,08,16,13,20,23.50
2014,08,16,13,21,23.60
2014,08,16,13,22,23.50
2014,08,16,13,23,23.50
2014,08,16,13,24,23.50
2014,08,16,13,25,23.50
2014,08,16,13,26,23.60
2014,08,16,13,27,23.60
2014,08,16,13,28,23.60
2014,08,16,13,29,23.60
2014,08,16,13,30,23.60
2014,08,16,13,31,23.60
2014,08,16,13,32,23.60
2014,08,16,13,33,23.70
2014,08,16,13,34,23.70
2014,08,16,13,35,23.70
2014,08,16,13,36,23.70
2014,08,16,13,37,23.70
2014,08,16,13,38,23.70
2014,08,16,13,39,23.60
2014,08,16,13,40,23.60
2014,08,16,13,41,23.70
2014,08,16,13,42,23.70
2014,08,16,13,43,23.70
2014,08,16,13,44,23.80
2014,08,16,13,45,23.90
2014,08,16,13,46,24.00
2014,08,16,13,47,24.10
2014,08,16,13,48,24.20
2014,08,16,13,49,24.30
2014,08,16,13,50,24.30
2014,08,16,13,51,24.30
2014,08,16,13,52,24.30
2014,08,16,13,53,24.30
2014,08,16,13,54,24.30
2014,08,16,13,55,24.20
2014,08,16,13,56,24.20
2014,08,16,13,57,24.30
2014,08,16,13,58,24.30
2014,08,16,13,59,24.30
2014,08,16,14,00,24.30
2014,08,16,14,01,24.30
2014,08,16,14,02,24.40
2014,08,16,14,03,24.50
2014,08,16,14,04,24.50
2014,08,16,14,05,24.50
2014,08,16,14,06,24.50
2014,08,16,14,07,24.50
2014,08,16,14,08,24.40
2014,08,16,14,09,24.40
2014,08,16,14,10,24.40
2014,08,16,14,11,24.40
2014,08,16,14,12,24.40
2014,08,16,14,13,24.50
2014,08,16,14,14,24.60
2014,08,16,14,15,24.60
2014,08,16,14,16,24.70
2014,08,16,14,17,24.80
2014,08,16,14,18,24.80
2014,08,16,14,19,24.90
2014,08,16,14,20,24.90
2014,08,16,14,21,25.00
2014,08,16,14,22,25.10
2014,08,16,14,23,25.20
2014,08,16,14,24,25.30
2014,08,16,14,25,25.40
2014,08,16,14,26,25.50
2014,08,16,14,27,25.60
2014,08,16,14,28,25.70
2014,08,16,14,29,25.70
2014,08,16,14,30,25.80
2014,08,16,14,31,25.80
2014,08,16,14,32,25.80
2014,08,16,14,33,25.70
2014,08,16,14,34,25.70
2014,08,16,14,35,25.60
2014,08,16,14,36,25.50
2014,08,16,14,37,25.30
2014,08,16,14,38,25.20
2014,08,16,14,39,25.20
2014,08,16,14,40,25.20
2014,08,16,14,41,25.10
2014,08,16,14,42,25.10
2014,08,16,14,43,25.00
2014,08,16,14,44,25.00
2014,08,16,14,45,25.10
2014,08,16,14,46,25.10
2014,08,16,14,47,25.10
2014,08,16,14,48,25.10
2014,08,16,14,49,25.20
2014,08,16,14,50,25.30
2014,08,16,14,51,25.40
2014,08,16,14,52,25.50
2014,08,16,14,53,25.50
2014,08,16,14,54,25.50
2014,08,16,14,55,25.40
2014,08,16,14,56,25.40
2014,08,16,14,57,25.40
2014,08,16,14,58,25.40
2014,08,16,14,59,25.40
2014,08,16,15,00,25.40
2014,08,16,15,01,25.50
2014,08,16,15,02,25.50
2014,08,16,15,03,25.60
2014,08,16,15,04,25.70
2014,08,16,15,05,25.70
2014,08,16,15,06,25.70
2014,08,16,15,07,25.70
2014,08,16,15,08,25.80
2014,08,16,15,09,25.80
2014,08,16,15,10,25.70
2014,08,16,15,11,25.60
2014,08,16,15,12,25.60
2014,08,16,15,13,25.50
2014,08,16,15,14,25.50
2014,08,16,15,15,25.50
2014,08,16,15,16,25.40
2014,08,16,15,17,25.40
2014,08,16,15,18,25.40
2014,08,16,15,19,25.50
2014,08,16,15,20,25.50
2014,08,16,15,21,25.50
2014,08,16,15,22,25.50
2014,08,16,15,23,25.60
2014,08,16,15,24,25.70
2014,08,16,15,25,25.70
2014,08,16,15,26,25.70
2014,08,16,15,27,25.70
2014,08,16,15,28,25.70
2014,08,16,15,29,25.70
2014,08,16,15,30,25.70
2014,08,16,15,31,25.70
2014,08,16,15,32,25.70
2014,08,16,15,33,25.70
2014,08,16,15,34,25.70
2014,08,16,15,35,25.70
2014,08,16,15,36,25.80
2014,08,16,15,37,25.90
2014,08,16,15,38,25.90
2014,08,16,15,39,26.00
2014,08,16,15,40,26.00
2014,08,16,15,41,26.10
2014,08,16,15,42,26.10
2014,08,16,15,43,26.10
2014,08,16,15,44,26.10
2014,08,16,15,45,26.20
2014,08,16,15,46,26.30
2014,08,16,15,47,26.40
2014,08,16,15,48,26.40
2014,08,16,15,49,26.40
2014,08,16,15,50,26.50
2014,08,16,15,51,26.50
2014,08,16,15,52,26.60
2014,08,16,15,53,26.60
2014,08,16,15,54,26.50
2014,08,16,15,55,26.50
2014,08,16,15,56,26.40
2014,08,16,15,57,26.30
2014,08,16,15,58,26.10
2014,08,16,15,59,26.00
2014,08,16,16,00,25.90
2014,08,16,16,01,25.90
2014,08,16,16,02,25.80
2014,08,16,16,03,25.80
2014,08,16,16,04,25.80
2014,08,16,16,05,25.80
2014,08,16,16,06,25.80
2014,08,16,16,07,25.80
2014,08,16,16,08,25.80
2014,08,16,16,09,25.80
2014,08,16,16,10,25.80
2014,08,16,16,11,25.80
2014,08,16,16,12,25.80
2014,08,16,16,13,25.80
2014,08,16,16,14,25.80
2014,08,16,16,15,25.90
2014,08,16,16,16,25.90
2014,08,16,16,17,25.90
2014,08,16,16,18,25.90
2014,08,16,16,19,25.90
2014,08,16,16,20,25.80
2014,08,16,16,21,25.80
2014,08,16,16,22,25.80
2014,08,16,16,23,25.80
2014,08,16,16,24,25.80
2014,08,16,16,25,25.80
2014,08,16,16,26,25.90
2014,08,16,16,27,25.90
2014,08,16,16,28,26.00
2014,08,16,16,29,26.00
2014,08,16,16,30,26.10
2014,08,16,16,31,26.10
2014,08,16,16,32,26.20
2014,08,16,16,33,26.10
2014,08,16,16,34,26.10
2014,08,16,16,35,26.10
2014,08,16,16,36,26.10
2014,08,16,16,37,26.20
2014,08,16,16,38,26.20
2014,08,16,16,39,26.20
2014,08,16,16,40,26.20
2014,08,16,16,41,26.20
2014,08,16,16,42,26.20
2014,08,16,16,43,26.30
2014,08,16,16,44,26.30
2014,08,16,16,45,26.20
2014,08,16,16,46,26.20
2014,08,16,16,47,26.20
2014,08,16,16,48,26.20
2014,08,16,16,49,26.20
2014,08,16,16,50,26.30
2014,08,16,16,51,26.40
2014,08,16,16,52,26.40
2014,08,16,16,53,26.50
2014,08,16,16,54,26.50
2014,08,16,16,55,26.50
2014,08,16,16,56,26.60
2014,08,16,16,57,26.60
2014,08,16,16,58,26.60
2014,08,16,16,59,26.60
2014,08,16,17,00,26.50
2014,08,16,17,01,26.60
2014,08,16,17,02,26.60
2014,08,16,17,03,26.60
2014,08,16,17,04,26.70
2014,08,16,17,05,26.80
2014,08,16,17,06,26.80
2014,08,16,17,07,26.80
2014,08,16,17,08,26.80
2014,08,16,17,09,26.80
2014,08,16,17,10,26.70
2014,08,16,17,11,26.70
2014,08,16,17,12,26.70
2014,08,16,17,13,26.60
2014,08,16,17,14,26.60
2014,08,16,17,15,26.60
2014,08,16,17,16,26.60
2014,08,16,17,17,26.60
2014,08,16,17,18,26.60
2014,08,16,17,19,26.60